This demonstration page uses our WeatherBlox Daily Observations layout. Learn more.

Left ArrowRight Arrow

Hourly Observations for March 6, 2020

Temp ( °F °C ) Dew Point ( °F °C ) Humidity (%) Winds ( mph kmh ) Pressure ( in mb ) Visibility ( mi km ) Precip ( " mm )
12:54 am 00:54 Clear 33 0.6 24 -4.4 70 70 NW 7 11 30.5 1033 10 16.0934 0 0
1:54 am 01:54 Clear 23 -5 18 -7.8 81 81 N 5 7 30.53 1034 10 16.0934 0 0
2:54 am 02:54 Clear 24 -4.4 19 -7.2 81 81 WNW 3 6 30.52 1034 10 16.0934 0 0
3:54 am 03:54 Clear 23 -5 20 -6.7 88 88 W 3 6 30.53 1034 10 16.0934 0 0
4:54 am 04:54 Clear 18 -7.8 14 -10 84 84 N 7 11 30.54 1034 10 16.0934 0 0
5:54 am 05:54 Clear 22 -5.6 18 -7.8 85 85 Calm 30.55 1035 10 16.0934 0 0
6:54 am 06:54 Sunny 18 -7.8 15 -9.4 88 88 N 5 7 30.58 1035 10 16.0934 0 0
7:54 am 07:54 Sunny 25 -3.9 20 -6.7 81 81 Calm 30.58 1036 10 16.0934 0 0
8:54 am 08:54 Sunny 31 -0.6 25 -3.9 79 79 Calm 30.58 1036 10 16.0934 0 0
9:54 am 09:54 Sunny 36 2.2 26 -3.3 67 67 Calm 30.6 1036 10 16.0934 0 0
10:54 am 10:54 Sunny 41 5 20 -6.7 43 43 VRB 3 6 30.58 1036 10 16.0934 0 0
11:54 am 11:54 Sunny 45 7.2 17 -8.3 33 33 VRB 6 9 30.55 1035 10 16.0934 0 0
12:54 pm 12:54 Sunny 50 10 15 -9.4 25 25 S 12 19 30.51 1033 10 16.0934 0 0
1:54 pm 13:54 Sunny 54 12.2 15 -9.4 21 21 SSE 13 20 30.47 1032 10 16.0934 0 0
2:54 pm 14:54 Sunny 56 13.3 15 -9.4 20 20 S 17 28 30.43 1030 10 16.0934 0 0
3:54 pm 15:54 Sunny 56 13.3 14 -10 19 19 SSE 20 31 30.38 1029 10 16.0934 0 0
4:54 pm 16:54 Sunny 56 13.3 14 -10 19 19 SSE 20 31 30.37 1028 10 16.0934 0 0
5:54 pm 17:54 Sunny 53 11.7 14 -10 21 21 S 15 24 30.35 1028 10 16.0934 0 0
6:54 pm 18:54 Clear 46 7.8 16 -8.9 30 30 S 10 17 30.36 1028 10 16.0934 0 0
7:54 pm 19:54 Clear 46 7.8 17 -8.3 31 31 SSE 13 20 30.34 1028 10 16.0934 0 0
8:54 pm 20:54 Clear 46 7.8 16 -8.9 30 30 S 14 22 30.33 1027 10 16.0934 0 0
9:54 pm 21:54 Clear 45 7.2 16 -8.9 31 31 S 16 26 30.32 1027 10 16.0934 0 0
10:54 pm 22:54 Clear 41 5 17 -8.3 38 38 SSE 13 20 30.31 1027 10 16.0934 0 0
11:54 pm 23:54 Clear 43 6.1 18 -7.8 37 37 S 14 22 30.29 1026 10 16.0934 0 0

Powered by AerisWeather